Provo, UT

5:53 PM MDT on July 27, 2017 (GMT -0600)
Provo Municipal

Weather History for KPVU - June, 2012

Change the Weather History Date:

Sunday, June 10, 2012

  Actual Average Record
Temperature  
Mean Temperature 52 °F -  
Max Temperature 64 °F 75 °F 107 °F (2008)
Min Temperature 39 °F 48 °F 33 °F (2002)
Degree Days  
Heating Degree Days 14    
Growing Degree Days 2 (Base 50)    
Moisture  
Dew Point 29 °F    
Average Humidity 45    
Maximum Humidity 70    
Minimum Humidity 24    
Precipitation  
Precipitation 0.00 in - - ()
Sea Level Pressure  
Sea Level Pressure 30.16 in    
Wind  
Wind Speed 8 mph (North)    
Max Wind Speed 15 mph    
Max Gust Speed -    
Visibility 11 miles    
Events      
Averages and records for this station are not official NWS values.
T = Trace of Precipitation, MM = Missing Value Source: NWS Daily Summary

Daily Weather History Graph

Daily Weather History Graph

Search for Another Location

Airport or City:

Trip Planner

Search our weather history database for the weather conditions in past years. The results will help you decide how hot, cold, wet, or windy it might be!

Date:

Astronomy

Jun. 10, 2012 Rise Set
Actual Time 5:56 AM MDT 8:56 PM MDT
Civil Twilight 5:24 AM MDT 9:29 PM MDT
Nautical Twilight 4:42 AM MDT 10:10 PM MDT
Astronomical Twilight 3:53 AM MDT 10:59 PM MDT
Moon 12:50 AM MDT (6/10) 12:49 PM MDT (6/10)
Length of Visible Light 16h 05m
Length of Day
14h 59m
Waning Gibbous, 57% of the Moon is Illuminated
Jun 10
Waning Gibbous
Jun 11
Last Quarter
Jun 19
New
Jun 26
First Quarter
Jul 3
Full

Hourly Weather History & Observations

Time (MDT) Temp. Windchill Dew Point Humidity Pressure Visibility Wind Dir Wind Speed Gust Speed Precip Events Conditions
12:15 AM 51.8 °F - 23.0 °F 33% 30.10 in 10.0 mi NW 11.5 mph - N/A   Clear
12:35 AM 51.8 °F - 23.0 °F 33% 30.10 in 10.0 mi NNW 12.7 mph - N/A   Clear
12:55 AM 50.0 °F - 24.8 °F 37% 30.11 in 10.0 mi NNW 8.1 mph - N/A   Clear
1:15 AM 50.0 °F - 24.8 °F 37% 30.11 in 10.0 mi NW 12.7 mph - N/A   Clear
1:35 AM 50.0 °F - 24.8 °F 37% 30.12 in 10.0 mi NW 15.0 mph - N/A   Partly Cloudy
1:55 AM 48.2 °F - 24.8 °F 40% 30.12 in 10.0 mi WNW 10.4 mph - N/A   Clear
2:15 AM 48.2 °F - 26.6 °F 43% 30.12 in 10.0 mi NW 9.2 mph - N/A   Clear
2:35 AM 48.2 °F - 26.6 °F 43% 30.12 in 10.0 mi NE 3.5 mph - N/A   Clear
2:55 AM 46.4 °F 42.9 °F 28.4 °F 50% 30.12 in 10.0 mi NNE 6.9 mph - N/A   Clear
3:15 AM 44.6 °F 41.4 °F 28.4 °F 53% 30.13 in 10.0 mi North 5.8 mph - N/A   Clear
3:35 AM 44.6 °F 42.2 °F 28.4 °F 53% 30.12 in 10.0 mi North 4.6 mph - N/A   Clear
3:55 AM 42.8 °F 40.1 °F 28.4 °F 57% 30.13 in 10.0 mi East 4.6 mph - N/A   Clear
4:15 AM 44.6 °F 41.4 °F 28.4 °F 53% 30.13 in 10.0 mi NE 5.8 mph - N/A   Clear
4:35 AM 42.8 °F 39.3 °F 28.4 °F 57% 30.13 in 10.0 mi North 5.8 mph - N/A   Clear
4:55 AM 41.0 °F 38.0 °F 28.4 °F 61% 30.14 in 10.0 mi North 4.6 mph - N/A   Clear
5:15 AM 39.2 °F 35.0 °F 28.4 °F 65% 30.15 in 10.0 mi NE 5.8 mph - N/A   Clear
5:35 AM 39.2 °F 35.9 °F 28.4 °F 65% 30.15 in 10.0 mi ESE 4.6 mph - N/A   Clear
5:55 AM 39.2 °F 35.0 °F 30.2 °F 70% 30.15 in 10.0 mi SE 5.8 mph - N/A   Clear
6:15 AM 39.2 °F 35.0 °F 28.4 °F 65% 30.15 in 10.0 mi SE 5.8 mph - N/A   Clear
6:35 AM 39.2 °F 33.6 °F 28.4 °F 65% 30.16 in 10.0 mi SSE 8.1 mph - N/A   Clear
6:55 AM 42.8 °F 40.1 °F 30.2 °F 61% 30.16 in 10.0 mi SSE 4.6 mph - N/A   Clear
6:57 AM 44.6 °F 41.4 °F 30.2 °F 57% 30.16 in 15.0 mi SE 5.8 mph - N/A   Partly Cloudy
7:54 AM 48.2 °F - 32.0 °F 54% 30.17 in 15.0 mi ESE 5.8 mph - N/A   Partly Cloudy
8:55 AM 51.8 °F - 30.2 °F 44% 30.19 in 15.0 mi Calm Calm - N/A   Partly Cloudy
9:49 AM 51.8 °F - 28.4 °F 41% 30.19 in 15.0 mi West 8.1 mph - N/A   Partly Cloudy
11:52 AM 57.2 °F - 30.2 °F 36% 30.19 in 15.0 mi WSW 6.9 mph - N/A   Partly Cloudy
11:54 AM 55.4 °F - 28.4 °F 36% 30.19 in 15.0 mi South 4.6 mph - N/A   Partly Cloudy
12:57 PM 60.8 °F - 30.2 °F 31% 30.18 in 15.0 mi SW 10.4 mph - N/A   Partly Cloudy
3:50 PM 62.6 °F - 28.4 °F 27% 30.16 in 15.0 mi Variable 5.8 mph - N/A   Partly Cloudy
4:50 PM 62.6 °F - 30.2 °F 30% 30.16 in 15.0 mi Variable 5.8 mph - N/A   Partly Cloudy
6:50 PM 64.4 °F - 30.2 °F 28% 30.16 in 15.0 mi NW 11.5 mph - N/A   Clear
7:50 PM 64.4 °F - 26.6 °F 24% 30.17 in 15.0 mi NW 9.2 mph - N/A   Clear
8:50 PM 60.8 °F - 26.6 °F 27% 30.17 in 15.0 mi NW 11.5 mph - N/A   Clear
9:15 PM 60.8 °F - 28.4 °F 29% 30.17 in 10.0 mi NNW 11.5 mph - N/A   Clear
9:35 PM 60.8 °F - 30.2 °F 31% 30.18 in 10.0 mi North 8.1 mph - N/A   Clear
9:55 PM 59.0 °F - 32.0 °F 36% 30.18 in 10.0 mi North 6.9 mph - N/A   Clear
10:15 PM 57.2 °F - 28.4 °F 33% 30.19 in 10.0 mi NNW 6.9 mph - N/A   Clear
10:35 PM 55.4 °F - 28.4 °F 36% 30.19 in 10.0 mi ENE 4.6 mph - N/A   Clear
10:55 PM 53.6 °F - 30.2 °F 41% 30.20 in 10.0 mi ESE 5.8 mph - N/A   Clear
11:15 PM 51.8 °F - 35.6 °F 54% 30.20 in 10.0 mi SSE 8.1 mph - N/A   Clear
11:35 PM 51.8 °F - 35.6 °F 54% 30.19 in 10.0 mi SSE 8.1 mph - N/A   Clear
11:55 PM 51.8 °F - 37.4 °F 58% 30.20 in 10.0 mi Calm Calm - N/A   Clear